Franklin, PA

11:41 PM EST on November 14, 2019 (GMT -0500)
Venango Regional

Weather History for KFKL - September, 2019

Change the Weather History Date:

Sunday, September 29, 2019

  Actual Average Record
Temperature  
Mean Temperature 64 °F -  
Max Temperature 71 °F 66 °F 88 °F (1959)
Min Temperature 57 °F 45 °F 29 °F (1942)
Degree Days  
Heating Degree Days 1    
Growing Degree Days 14 (Base 50)    
Moisture  
Dew Point 58 °F    
Average Humidity 85    
Maximum Humidity 100    
Minimum Humidity 65    
Precipitation  
Precipitation 0.00 in - - ()
Sea Level Pressure  
Sea Level Pressure 30.28 in    
Wind  
Wind Speed 4 mph (East)    
Max Wind Speed 9 mph    
Max Gust Speed -    
Visibility 10 miles    
Events Rain    
Averages and records for this station are not official NWS values.
T = Trace of Precipitation, MM = Missing Value Source: NWS Daily Summary

Daily Weather History Graph

Daily Weather History Graph

Search for Another Location

Airport or City:

Astronomy

Sep. 29, 2019 Rise Set
Actual Time 7:13 AM EDT 7:05 PM EDT
Civil Twilight 6:46 AM EDT 7:32 PM EDT
Nautical Twilight 6:14 AM EDT 8:04 PM EDT
Astronomical Twilight 5:41 AM EDT 8:37 PM EDT
Moon 8:02 AM EDT (9/29) 8:04 PM EDT (9/29)
Length of Visible Light 12h 46m
Length of Day
11h 51m
New Moon, 1% of the Moon is Illuminated
Sep 29
New Moon
Oct 5
First Quarter
Oct 13
Full
Oct 21
Last Quarter
Oct 27
New

Hourly Weather History & Observations

Time (EDT) Temp. Dew Point Humidity Pressure Visibility Wind Dir Wind Speed Gust Speed Precip Events Conditions
12:12 AM 62.6 °F 62.6 °F 100% 30.23 in 10.0 mi Calm Calm - N/A   Overcast
12:39 AM 62.6 °F 60.8 °F 94% 30.24 in 6.0 mi Calm Calm - N/A   Mostly Cloudy
12:56 AM 63.0 °F 62.1 °F 97% 30.22 in 6.0 mi Calm Calm - N/A   Overcast
1:28 AM 62.6 °F 62.6 °F 100% 30.25 in 8.0 mi Calm Calm - N/A   Overcast
1:56 AM 63.0 °F 62.1 °F 97% 30.24 in 10.0 mi NNE 4.6 mph - N/A   Overcast
2:54 AM 62.6 °F 60.8 °F 94% 30.26 in 10.0 mi North 6.9 mph - N/A   Overcast
2:56 AM 62.1 °F 61.0 °F 96% 30.24 in 10.0 mi North 6.9 mph - N/A   Overcast
3:42 AM 60.8 °F 59.0 °F 94% 30.25 in 10.0 mi NE 5.8 mph - N/A   Overcast
3:56 AM 60.1 °F 57.9 °F 93% 30.24 in 10.0 mi NE 5.8 mph - N/A   Scattered Clouds
4:52 AM 59.0 °F 55.4 °F 88% 30.27 in 10.0 mi NE 5.8 mph - N/A   Mostly Cloudy
4:56 AM 57.9 °F 55.9 °F 93% 30.26 in 10.0 mi NE 5.8 mph - N/A   Mostly Cloudy
5:56 AM 57.9 °F 55.9 °F 93% 30.27 in 10.0 mi NNE 4.6 mph - N/A   Overcast
6:56 AM 59.0 °F 55.9 °F 90% 30.29 in 10.0 mi NE 4.6 mph - N/A   Overcast
7:56 AM 59.0 °F 55.9 °F 90% 30.30 in 10.0 mi NE 6.9 mph - N/A   Overcast
8:56 AM 61.0 °F 55.9 °F 83% 30.32 in 10.0 mi ENE 5.8 mph - N/A   Overcast
9:30 AM 62.6 °F 57.2 °F 82% 30.34 in 10.0 mi ENE 5.8 mph - N/A   Overcast
9:56 AM 62.1 °F 57.0 °F 84% 30.34 in 10.0 mi ENE 4.6 mph - N/A   Overcast
10:26 AM 62.6 °F 55.4 °F 77% 30.34 in 10.0 mi East 4.6 mph - N/A   Overcast
10:56 AM 64.0 °F 57.0 °F 78% 30.34 in 10.0 mi ESE 5.8 mph - N/A   Overcast
11:56 AM 66.0 °F 57.0 °F 73% 30.33 in 10.0 mi ESE 6.9 mph - N/A   Overcast
12:37 PM 66.2 °F 57.2 °F 73% 30.33 in 10.0 mi SSE 6.9 mph - N/A   Scattered Clouds
12:56 PM 68.0 °F 57.0 °F 68% 30.32 in 10.0 mi SSE 3.5 mph - N/A   Partly Cloudy
1:56 PM 70.0 °F 57.9 °F 65% 30.30 in 10.0 mi Variable 5.8 mph - N/A   Clear
2:56 PM 71.1 °F 59.0 °F 66% 30.29 in 10.0 mi ESE 4.6 mph - N/A   Clear
3:56 PM 69.1 °F 59.0 °F 70% 30.29 in 10.0 mi ESE 4.6 mph - N/A   Clear
4:56 PM 68.0 °F 59.0 °F 73% 30.28 in 10.0 mi ESE 6.9 mph - 0.00 in Rain Light Rain
5:56 PM 66.9 °F 60.1 °F 79% 30.27 in 10.0 mi ESE 6.9 mph - 0.00 in   Clear
6:56 PM 64.9 °F 60.1 °F 84% 30.26 in 10.0 mi South 4.6 mph - N/A   Clear
7:56 PM 64.0 °F 59.0 °F 84% 30.25 in 10.0 mi ESE 5.8 mph - N/A   Clear
8:56 PM 64.0 °F 59.0 °F 84% 30.26 in 10.0 mi ESE 4.6 mph - N/A   Clear
9:56 PM 63.0 °F 59.0 °F 87% 30.25 in 10.0 mi ESE 8.1 mph - N/A   Partly Cloudy
10:56 PM 63.0 °F 57.9 °F 84% 30.25 in 10.0 mi ESE 4.6 mph - N/A   Partly Cloudy
11:56 PM 62.1 °F 57.9 °F 86% 30.24 in 10.0 mi ESE 9.2 mph - N/A   Overcast